Dewpoint
38 39 40 41 40 39 39 39 39 39 39 40 41 42 43 45 45 46 46 46 46 46 45 45 45 45 46 47 49 50 50 51 51 52 53 54 55 55 55 55 55 55 55 55 55 54 55 55 55 55 55 55 56 56 57 57 58 59 59 59 60 60 61 61 62 62 62 63 63 62 62 62 61 60 59 59 59 59 59 59 60 60 60 60 60 60
37 37 38 39 39 39 38 39 40 40 39 40 41 41 43 42 42 42 43 43 44 44 43 43 43 43 43 45 47 48 49 50 50 51 52 53 54 55 55 55 55 55 55 54 54 54 54 54 54 54 54 55 55 55 56 56 57 58 58 59 59 59 60 60 61 61 62 62 62 62 62 61 60 59 59 59 59 59 59 59 60 60 60 60 60 60
34 34 35 36 37 36 35 36 37 38 38 37 37 37 37 37 37 37 37 38 39 39 39 39 40 40 41 42 45 47 48 49 50 50 51 51 52 53 54 55 55 55 54 54 54 54 53 53 53 53 54 54 54 54 55 55 55 56 57 57 58 58 58 59 59 60 60 61 61 60 60 60 59 59 59 59 59 59 59 59 60 60 60 60 60 60
32 31 32 32 33 32 32 32 33 34 35 35 35 35 35 34 34 34 35 35 35 36 36 36 37 37 39 40 42 45 48 49 49 50 50 50 50 51 52 53 54 54 54 54 53 53 53 53 53 53 53 53 53 53 53 54 54 55 55 56 56 56 57 57 58 58 58 59 59 59 59 59 59 59 59 59 59 59 59 59 59 60 60 60 60 60
31 30 30 30 30 30 31 32 33 33 34 34 34 34 34 34 35 35 36 36 36 36 37 37 37 38 39 40 42 45 47 48 49 49 49 49 49 50 50 51 52 52 53 53 53 52 52 52 52 52 52 52 52 52 53 53 54 54 55 55 55 55 55 56 56 56 56 57 57 57 57 58 58 58 59 59 59 59 59 59 60 60 60 60 60 60
30 30 30 29 29 29 30 32 32 33 33 33 33 33 34 34 35 36 36 37 37 37 38 38 39 39 40 41 43 45 46 47 48 48 48 49 49 49 50 50 50 51 51 51 52 52 52 52 52 52 52 52 52 52 52 52 53 53 54 54 54 55 55 55 55 55 55 56 56 56 56 57 57 57 58 58 59 59 59 60 60 60 60 60 60 59
30 30 31 30 30 30 31 32 32 32 31 31 31 31 32 32 33 33 34 34 35 36 37 37 37 38 38 39 41 42 44 45 46 46 47 48 48 49 49 50 50 50 50 51 51 51 51 51 51 51 51 51 51 51 51 52 52 53 53 53 54 54 54 55 55 55 55 55 55 56 56 56 56 56 57 58 58 59 59 60 60 60 60 60 59 59
30 30 30 30 31 31 31 31 30 30 29 29 28 28 29 30 31 31 32 32 32 32 32 33 33 34 33 34 36 37 38 39 40 41 43 44 46 47 48 49 50 50 50 50 51 51 51 51 51 51 51 51 50 51 51 51 51 52 52 53 53 54 54 54 54 55 55 55 55 55 56 56 56 56 56 57 57 58 59 59 60 60 60 60 60 59
30 30 30 30 29 29 28 28 29 29 29 29 29 28 28 28 29 29 30 31 31 30 30 30 31 31 31 32 33 34 36 37 37 37 39 40 42 45 47 48 49 50 50 50 50 51 51 51 51 50 50 50 50 50 50 50 50 51 51 52 52 53 53 54 54 54 55 55 55 55 55 56 56 56 56 56 57 57 58 59 59 60 60 60 60 59
29 29 29 29 29 29 28 28 28 29 30 30 29 29 28 28 28 28 28 29 30 31 31 31 31 31 32 32 33 34 36 37 39 40 41 42 43 45 46 46 47 48 49 50 50 50 50 50 50 50 50 50 50 50 50 50 50 50 50 51 52 52 53 53 54 54 54 55 55 55 55 55 56 56 56 56 56 56 57 57 58 59 60 60 60 60
29 29 28 28 29 29 29 28 28 29 30 29 29 28 28 28 27 27 27 27 28 30 31 32 32 31 30 30 31 31 32 33 35 38 41 43 44 45 45 45 45 46 47 48 49 50 50 50 50 50 50 50 50 50 50 49 49 50 50 50 51 52 52 53 53 54 54 54 54 55 55 55 56 56 56 56 56 56 56 56 57 58 59 59 59 60
29 29 28 28 28 28 28 28 28 29 29 28 27 27 27 27 27 26 25 26 26 27 28 28 28 28 28 27 27 28 28 30 32 35 38 39 41 41 41 41 42 44 45 46 47 48 49 50 50 50 50 50 50 50 49 49 49 49 50 50 51 51 52 52 53 53 53 54 54 54 55 55 55 56 56 56 56 56 56 55 56 56 57 58 59 59
29 28 28 28 28 27 27 27 27 27 27 26 25 25 24 26 26 26 25 25 25 26 26 26 27 27 28 28 28 28 29 30 32 34 35 36 37 38 38 39 40 40 41 42 44 45 47 48 49 50 50 50 49 49 49 49 49 49 50 50 50 51 52 52 52 53 53 53 54 54 54 55 55 55 55 56 56 55 55 55 55 55 56 57 58 59
28 28 27 27 27 26 26 26 26 26 25 25 25 25 25 26 26 26 25 25 25 26 26 26 27 27 28 29 30 31 30 31 31 32 33 35 36 36 37 38 39 40 41 41 42 43 46 47 48 48 49 49 49 49 49 49 49 49 50 50 50 51 51 52 52 52 53 53 53 53 54 54 55 55 55 55 55 55 55 55 55 55 55 56 57 58
27 27 27 27 27 27 26 26 26 25 24 24 25 25 25 25 25 25 25 25 26 26 27 27 28 28 28 29 30 30 30 29 29 29 30 32 34 35 37 38 39 41 41 41 42 43 45 46 47 47 48 48 48 48 49 49 49 49 49 50 50 51 51 51 52 52 52 52 53 53 53 54 54 55 55 55 55 55 55 55 54 55 55 55 56 57
27 27 27 27 27 26 26 26 25 24 24 24 24 24 25 25 25 25 25 26 26 27 27 27 27 27 27 28 29 29 29 28 28 28 28 29 31 33 35 36 37 38 39 40 41 42 43 45 46 46 47 47 48 48 48 49 49 49 49 49 50 50 51 51 51 51 52 52 52 53 53 53 54 54 54 55 55 54 54 54 54 54 54 55 55 56
28 28 27 27 27 26 26 26 25 25 24 24 25 25 25 25 25 26 26 26 27 27 27 26 26 26 26 27 28 29 30 29 28 28 28 28 29 31 34 33 33 34 35 37 38 39 41 42 43 45 46 47 48 48 48 48 49 49 49 49 50 50 50 51 51 51 51 52 52 52 53 53 53 53 54 54 54 54 54 54 54 54 54 54 55 55
28 28 28 27 27 26 26 25 25 25 25 25 25 26 26 26 26 27 27 28 27 27 27 27 27 27 26 26 27 28 30 29 28 28 28 28 28 30 32 32 32 32 33 34 35 37 38 39 40 41 42 45 46 47 48 48 49 49 49 49 49 50 50 50 50 51 51 51 52 52 52 52 53 53 53 53 53 53 53 53 54 54 54 54 54 55
28 28 28 27 27 26 26 26 26 26 26 26 26 27 27 28 28 28 28 28 28 28 28 28 28 28 27 27 27 28 29 28 28 28 27 27 28 28 30 30 31 31 31 32 33 34 36 37 38 39 39 41 43 45 46 48 48 49 49 49 49 49 50 50 50 50 51 51 51 51 52 52 52 52 52 53 53 53 53 53 53 54 54 54 54 54
30 29 28 28 28 27 27 27 27 27 27 27 27 28 28 28 28 28 28 28 28 28 28 28 27 27 27 26 26 27 28 29 30 30 29 29 29 29 30 30 30 30 30 31 32 33 34 34 35 37 39 40 41 42 44 46 48 49 49 49 49 49 49 50 50 50 50 51 51 51 51 51 51 52 52 52 52 53 53 53 53 53 53 53 54 54
32 31 31 30 29 28 28 27 27 27 28 28 28 28 28 28 28 28 28 28 28 28 28 27 27 27 27 26 27 28 31 32 33 33 33 32 32 31 31 30 30 30 30 31 32 32 33 33 34 36 37 38 39 41 42 45 46 48 49 49 49 49 49 50 50 50 50 50 50 50 51 51 51 51 51 52 52 52 52 53 53 53 53 53 53 53
32 32 32 32 31 31 31 30 30 30 31 32 31 30 30 30 30 29 29 30 30 30 30 30 31 32 33 34 34 34 35 36 36 35 33 32 31 30 30 30 30 30 30 31 31 32 33 33 33 34 36 37 39 40 41 43 45 47 48 49 49 50 50 50 50 50 50 50 50 50 50 50 50 51 51 51 51 52 52 52 52 53 53 53 53 53
31 31 31 32 32 32 32 32 33 34 35 35 35 35 34 34 34 34 35 35 35 35 35 36 36 36 35 34 33 33 33 32 32 31 30 29 28 28 29 30 31 31 31 32 32 32 33 33 33 34 36 38 39 40 41 42 44 46 47 48 49 49 50 50 50 50 50 50 50 50 50 50 50 50 50 51 51 51 51 52 52 52 52 52 53 53
30 30 31 31 31 32 32 33 34 35 36 36 36 35 35 35 36 36 36 36 35 35 35 34 33 32 31 30 30 29 29 29 29 29 28 28 28 28 28 30 31 32 32 33 33 33 34 34 34 34 35 37 38 39 41 41 43 45 46 47 48 49 49 50 50 50 50 50 50 50 50 50 50 50 50 50 50 51 51 51 51 52 52 52 52 52
30 30 30 31 32 32 32 32 33 34 34 34 34 34 34 34 35 35 35 34 33 33 32 31 30 28 28 28 28 28 28 29 29 28 28 28 28 28 28 30 31 32 32 34 35 35 35 35 35 35 35 36 37 39 40 41 42 44 45 46 47 48 49 49 49 49 50 50 50 50 50 50 50 50 50 50 50 50 51 51 51 51 51 51 51 51
32 33 33 34 35 36 36 36 36 36 36 35 34 33 33 34 34 34 33 32 32 32 31 30 28 28 28 28 27 28 28 29 29 28 28 27 27 27 27 28 29 30 31 33 35 36 36 36 36 36 36 36 37 39 40 41 41 43 44 45 46 47 48 48 48 49 49 49 49 50 50 50 50 50 50 50 50 50 50 50 50 51 51 51 51 51
35 35 36 36 36 35 36 36 36 36 36 36 35 34 34 34 34 33 32 33 33 32 31 30 29 28 28 28 28 28 28 28 28 28 28 27 26 26 26 27 28 29 29 31 32 34 36 36 37 37 37 37 38 39 40 41 42 43 43 45 46 46 47 47 48 48 48 48 49 49 49 49 49 50 50 50 50 50 50 50 50 50 50 50 51 51
32 32 32 32 32 32 33 33 34 34 35 35 36 36 35 35 34 33 32 33 33 33 31 30 29 29 29 28 28 28 28 28 28 27 27 27 26 25 26 26 27 28 27 28 29 31 32 34 35 37 37 38 39 40 41 42 43 43 44 45 46 46 46 47 47 47 48 48 48 48 48 48 49 49 49 49 49 50 50 50 50 50 50 50 51 51
31 32 32 32 32 32 32 32 33 33 34 35 35 36 35 36 35 34 33 34 34 33 32 31 31 30 30 29 29 29 28 28 27 27 28 27 26 26 27 27 27 27 26 26 27 27 28 30 32 33 35 37 38 39 40 41 42 43 44 45 46 46 46 47 47 47 47 47 47 47 48 48 48 48 48 48 49 49 50 50 50 50 50 50 51 51
31 31 31 31 31 32 32 32 32 34 35 36 36 37 37 37 37 36 36 36 35 33 32 32 31 30 29 29 28 27 27 26 27 27 28 27 27 27 28 28 27 27 26 26 26 25 26 27 29 31 32 33 35 35 36 37 39 40 41 43 45 46 46 46 46 46 46 47 47 47 47 47 47 47 47 48 48 49 49 50 50 50 51 51 51 51
31 31 31 32 32 33 34 34 35 36 37 37 37 38 38 37 37 36 35 34 33 32 31 30 29 29 28 28 26 25 24 25 26 27 28 27 27 28 28 28 27 27 27 27 26 25 25 26 28 30 32 32 33 34 35 36 37 38 39 41 42 43 45 45 45 46 46 46 46 46 46 46 47 47 47 47 48 48 49 49 50 50 50 50 50 50
32 32 32 33 33 33 32 32 32 33 33 34 34 34 34 34 33 32 32 31 31 30 29 28 28 28 28 28 27 26 25 25 26 28 28 27 27 27 28 28 27 27 27 28 28 27 26 27 28 29 31 32 32 34 35 36 37 38 39 40 41 41 43 44 44 44 45 45 45 46 46 46 46 46 46 47 47 48 48 49 50 50 50 50 50 50
28 28 29 29 28 28 27 27 27 28 28 28 28 29 29 29 30 29 29 28 28 28 28 28 28 28 28 28 28 28 27 27 28 28 29 28 28 28 28 28 28 28 28 29 30 30 29 30 31 32 32 32 32 33 34 35 37 37 39 40 40 41 42 43 43 43 43 44 44 44 45 45 45 46 46 46 46 47 48 48 49 50 50 50 50 50
26 27 27 27 26 26 25 25 25 25 26 26 26 26 26 27 27 28 28 28 28 28 28 28 28 28 28 28 28 27 27 27 28 29 30 29 29 30 31 30 30 30 31 32 32 33 33 33 33 33 32 32 32 32 34 35 36 37 38 39 40 40 41 41 41 42 42 43 43 43 44 44 45 45 46 46 46 46 47 48 48 49 50 50 50 50
27 28 28 28 27 26 26 26 25 25 25 25 25 25 26 26 26 26 28 28 29 29 29 29 30 30 29 28 28 27 26 26 28 29 30 31 32 32 32 32 33 33 33 33 33 33 33 33 33 32 32 31 31 31 32 34 35 36 37 39 39 40 40 41 41 41 42 42 43 43 43 44 44 45 46 46 46 46 47 47 48 49 49 50 50 50
29 30 29 28 27 25 25 25 26 26 27 27 28 28 29 29 30 32 32 33 33 33 33 34 34 33 32 32 30 29 28 28 29 30 31 32 33 34 33 33 34 34 33 33 32 32 31 31 30 30 30 30 29 30 31 33 35 36 37 38 39 40 41 41 42 42 42 42 43 43 44 44 45 45 46 46 46 46 46 47 48 48 49 50 50 50
30 29 28 26 26 26 26 28 29 31 32 32 33 33 32 33 34 34 35 35 35 36 36 36 36 36 36 35 34 33 33 33 33 33 34 35 35 35 34 33 33 33 32 32 31 30 30 29 29 29 29 29 29 30 31 32 34 36 37 37 38 39 40 41 41 42 42 42 43 43 44 44 45 46 46 46 46 46 46 47 47 48 49 49 50 50
28 28 28 28 29 30 31 31 30 30 29 28 28 27 27 28 28 29 29 30 31 31 32 32 33 34 35 35 35 35 35 35 35 35 35 35 35 34 33 33 32 32 31 31 31 31 30 29 29 28 28 28 29 30 30 31 32 34 35 36 37 38 38 39 40 41 41 42 42 43 44 44 45 46 46 46 47 47 47 47 48 48 49 49 49 49
26 27 28 29 28 26 24 24 23 24 24 24 24 24 24 25 25 26 26 26 26 27 28 28 28 29 30 32 32 33 34 33 33 33 33 33 33 32 32 32 31 31 31 31 32 32 32 31 30 29 28 28 29 29 30 30 31 32 33 34 36 37 38 38 39 40 41 41 41 41 42 43 44 45 46 46 46 47 47 47 48 49 49 49 49 49
25 26 25 25 24 23 22 22 22 22 22 23 23 24 24 24 25 25 26 27 27 27 28 28 27 27 28 28 29 30 31 32 32 32 32 32 32 32 31 30 30 30 30 31 32 32 32 31 31 30 30 29 29 30 30 30 30 31 31 32 32 34 36 37 38 39 40 40 41 41 41 42 43 44 45 46 46 46 47 47 48 48 49 49 48 48
24 23 23 23 23 23 22 22 22 22 22 23 23 23 23 24 25 25 27 27 28 28 28 28 28 28 29 29 29 29 29 30 31 31 32 32 32 32 32 31 30 30 31 31 32 32 32 32 32 31 31 31 31 31 31 31 31 31 31 31 31 32 34 36 38 39 40 40 40 41 41 41 42 43 44 45 46 46 47 47 48 48 48 48 48 47
23 23 22 22 22 21 21 22 22 23 23 23 23 24 24 24 25 26 26 27 27 28 28 29 30 30 30 30 30 30 30 31 31 31 32 32 32 32 32 32 32 32 32 32 32 33 33 33 33 32 32 32 32 32 31 31 31 31 31 31 32 33 34 36 37 39 40 40 41 41 41 41 42 42 43 44 46 46 47 47 48 48 48 48 48 47
21 21 21 21 21 22 23 24 25 25 25 24 24 25 25 26 27 27 27 27 28 28 28 29 30 30 30 30 31 31 32 32 33 33 33 33 33 32 33 33 34 34 34 33 33 33 34 34 34 34 33 33 33 32 31 31 31 31 32 32 33 34 34 35 36 37 39 40 40 41 41 41 42 42 43 44 46 46 46 47 47 47 47 47 47 47
21 22 23 23 25 26 27 27 26 26 26 26 26 26 26 27 28 28 28 27 28 28 28 29 29 30 30 29 29 30 30 32 33 34 35 35 35 35 35 35 35 35 35 34 33 33 33 33 33 33 34 33 33 32 32 31 31 32 32 33 34 35 35 35 35 35 36 38 39 40 41 41 41 42 43 44 45 45 45 46 46 46 47 47 46 46
24 25 26 27 27 27 27 26 25 25 24 24 24 25 25 26 27 27 28 28 28 28 28 28 28 28 28 28 28 28 28 29 30 32 32 34 35 36 36 35 35 35 35 35 34 33 33 32 32 32 32 33 33 32 32 32 32 32 32 33 34 35 36 37 37 36 37 37 38 39 40 40 41 41 42 42 43 43 44 44 45 45 46 46 46 46
27 26 25 24 24 23 23 23 23 23 23 24 24 25 26 28 28 29 29 29 29 29 29 29 28 28 27 27 27 27 27 27 28 28 28 30 32 33 34 34 34 34 34 34 34 34 33 32 32 32 32 32 33 33 33 32 32 33 33 34 34 35 36 36 37 37 37 37 38 38 39 39 40 40 41 41 41 42 42 43 44 44 44 45 45 45
22 21 21 21 21 22 22 23 23 23 24 24 25 25 25 25 25 25 26 26 27 28 28 29 29 28 28 28 28 28 27 27 27 27 28 28 29 30 31 32 32 33 33 33 33 33 33 33 32 32 32 32 32 32 32 33 33 34 34 34 35 35 35 36 36 37 37 38 38 38 38 39 39 39 40 40 40 40 40 41 41 42 43 44 44 45
20 21 21 21 22 22 23 23 23 23 23 23 23 23 23 23 24 24 24 24 24 25 25 26 26 27 27 28 28 29 29 29 29 29 29 29 29 30 30 30 31 32 33 33 33 33 33 33 33 33 33 33 32 32 32 33 34 35 35 35 36 36 36 36 36 37 37 38 38 37 38 38 38 38 38 38 38 38 38 38 38 40 41 43 43 44
21 21 22 22 22 23 23 23 23 23 22 22 22 22 22 23 23 24 23 23 23 23 23 23 23 23 24 25 27 28 29 30 30 30 31 31 31 31 31 31 32 32 33 34 34 34 35 35 35 35 35 35 34 33 32 33 34 35 36 37 37 37 36 37 37 37 37 37 37 37 37 38 39 38 38 37 37 37 36 37 37 38 39 41 42 43
21 21 22 22 22 22 22 22 22 21 21 21 21 21 21 22 22 23 23 23 23 23 23 23 23 23 23 23 24 25 27 27 28 28 29 29 29 30 31 32 32 33 32 33 33 34 34 34 35 36 37 37 36 35 34 34 34 35 36 37 37 37 37 37 37 37 37 38 37 37 37 38 38 38 38 37 36 36 35 36 36 37 37 39 41 42
21 21 21 21 21 21 21 21 21 21 21 21 21 21 21 21 22 22 23 23 23 24 24 24 24 24 24 24 24 25 25 26 26 27 27 28 28 29 31 32 32 32 32 31 31 31 31 31 31 32 34 36 37 37 36 35 35 35 35 36 37 37 37 37 37 37 37 38 38 37 37 37 37 37 37 36 36 35 35 35 35 36 37 38 40 41